map of ORE home
ORE - Airport
Location
City:  Orléans, Centre, France
Name:Bricy
ICAO:LFOJ
IATA:ORE

Details
Type:Airport (Aerodrome, Airfield)
Use:Military
Latitude:47°59'16"N (47.987778)
Longitude:1°45'38"E (1.760556)
Elevation:412 ft (126 m)
Variation:0.52°E (WMM2015 magnetic declination)
0.13° annual change
Runways:1
Longest:7887 × 148 ft (2404 × 45 m)

Time
Time Zone:UTC+1 (DST+2)
Local Time:

Weather
METAR:LFOJ 221700Z AUTO 01004KT 9999 ///CB 19/12 Q1013 TEMPO 4900 -SHRA
TAF:LFOJ 220800Z 2209/2309 35005KT 9999 FEW025
TEMPO 2212/2219 35015G25KT 4900 -SHRA SCT040CB PROB40 2300/2307 3000 BR

Related Locations
Nearby:
Farthest:CHT: 12130 mi / 19521 km
Waitangi [Tuuta], CIT, NZ

Find:

   beyond  
but within

Other Information
Maps:
NOTAMs:
Links:
Sources:

  
flag of France
flag of Centre
  

Sectional Chart

Flight Planning
at skyvector.com

Satellite Image

Google Maps Satellite view

 

Copyright © 2004-2018 Karl L. Swartz. All rights reserved.
The Great Circle Mapper name and logo are trademarks of the Great Circle Mapper.
All other trademarks mentioned herein belong to their respective owners.
Please see credits for attibutions and further copyright information.

  Follow gcmap on Facebook Follow gcmap on Twitter Follow gcmap on Google+ GCmap on LinkedIn

hCard Microformat

Geo Microformat